TimeMST,TemperatureF,Dew PointF,Humidity,Sea Level PressureIn,VisibilityMPH,Wind Direction,Wind SpeedMPH,Gust SpeedMPH,PrecipitationIn,Events,Conditions,WindDirDegrees,DateUTC
12:53 AM,5.0,3.9,95,30.61,6.0,Calm,Calm,-,N/A,,Clear,0,2013-01-20 07:53:00
1:53 AM,1.0,-0.0,95,30.61,7.0,Calm,Calm,-,N/A,,Clear,0,2013-01-20 08:53:00
2:53 AM,1.0,-0.0,95,30.64,5.0,NE,3.5,-,N/A,,Clear,40,2013-01-20 09:53:00
3:53 AM,6.1,3.9,91,30.61,9.0,ENE,6.9,-,N/A,,Clear,70,2013-01-20 10:53:00
4:53 AM,3.9,1.9,91,30.61,9.0,East,3.5,-,N/A,,Clear,90,2013-01-20 11:53:00
5:53 AM,5.0,3.9,95,30.62,8.0,Calm,Calm,-,N/A,,Clear,0,2013-01-20 12:53:00
6:53 AM,-0.0,-2.0,91,30.67,7.0,Calm,Calm,-,N/A,,Clear,0,2013-01-20 13:53:00
7:53 AM,-0.0,-0.9,96,30.69,7.0,East,5.8,-,N/A,,Clear,80,2013-01-20 14:53:00
8:53 AM,-0.9,-0.9,100,30.72,5.0,West,3.5,-,N/A,,Clear,280,2013-01-20 15:53:00
9:53 AM,7.0,6.1,96,30.70,4.0,Calm,Calm,-,0.00,,Clear,0,2013-01-20 16:53:00
10:53 AM,19.0,12.9,77,30.62,10.0,ESE,6.9,-,N/A,,Clear,110,2013-01-20 17:53:00
11:53 AM,12.9,9.0,84,30.60,6.0,WNW,4.6,-,N/A,,Clear,300,2013-01-20 18:53:00
12:53 PM,17.1,10.9,77,30.55,6.0,NNW,3.5,-,N/A,,Haze,330,2013-01-20 19:53:00
1:53 PM,23.0,16.0,74,30.52,8.0,Calm,Calm,-,N/A,,Clear,0,2013-01-20 20:53:00
2:53 PM,19.9,15.1,81,30.53,10.0,WNW,8.1,-,N/A,,Clear,300,2013-01-20 21:53:00
3:53 PM,18.0,14.0,84,30.50,10.0,NW,6.9,-,N/A,,Clear,310,2013-01-20 22:53:00
4:53 PM,18.0,12.9,81,30.51,7.0,NNW,4.6,-,N/A,,Clear,340,2013-01-20 23:53:00
5:53 PM,12.9,9.0,84,30.54,10.0,NE,3.5,-,N/A,,Clear,50,2013-01-21 00:53:00
6:53 PM,10.9,8.1,88,30.58,10.0,Calm,Calm,-,N/A,,Clear,0,2013-01-21 01:53:00
7:53 PM,6.1,3.9,91,30.63,10.0,Calm,Calm,-,N/A,,Clear,0,2013-01-21 02:53:00
8:53 PM,9.0,7.0,92,30.62,10.0,ENE,5.8,-,N/A,,Clear,70,2013-01-21 03:53:00
9:53 PM,7.0,5.0,92,30.60,8.0,East,4.6,-,N/A,,Clear,80,2013-01-21 04:53:00
10:53 PM,5.0,3.0,92,30.57,7.0,Calm,Calm,-,N/A,,Clear,0,2013-01-21 05:53:00
11:53 PM,3.0,1.0,91,30.60,6.0,Calm,Calm,-,N/A,,Clear,0,2013-01-21 06:53:00